Regional Weather Roundup
Issued by NWS

Home | Current Version | Previous Version | Graphics & Text | Print | Product List | Glossary On
Versions: 1 2 3 4 5 6 7 8 9 10 11 12 13 14 15 16 17 18 19 20 21 22 23 24 25 26 27 28 29 30 31 32 33 34 35 36 37 38 39 40 41 42 43 44 45 46 47 48 49 50
000
ASUS43 KOAX 170502
RWRNE

WEATHER ROUNDUP FOR NEBRASKA
NATIONAL WEATHER SERVICE OMAHA NE
1100 PM CST THU NOV 16 2017

NOTES: SATELLITE DATA IS BEING USED TO AUGMENT CLOUD COVER ABOVE
       12000 FEET.
       "FAIR" INDICATES FEW OR NO CLOUDS BELOW 12,000 FEET WITH NO
       SIGNIFICANT WEATHER AND/OR OBSTRUCTIONS TO VISIBILITY.


NEZ001>004-019>022-054>056-170600-
NEBRASKA PANHANDLE

CITY           SKY/WX    TMP DP  RH WIND       PRES   REMARKS
SCOTTSBLUFF    CLEAR     43  27  53 NE6       29.66F
ALLIANCE       CLEAR     38  29  70 SE5       29.65F WCI  34
CHADRON        CLEAR     48  27  44 SW6       29.59S
GORDON         FAIR      47  30  52 SW9       29.61F
KIMBALL        CLOUDY    38  26  62 W6        29.72S WCI  33
SIDNEY         CLOUDY    36  25  64 SW9       29.70F WCI  29
$$

NEZ057>060-069>072-079>082-170600-
SOUTHWEST NEBRASKA

CITY           SKY/WX    TMP DP  RH WIND       PRES   REMARKS
NORTH PLATTE   CLOUDY    52  37  56 SE7       29.68F
LEXINGTON      CLOUDY    47  37  67 SE8G16    29.71F
MCCOOK         CLOUDY    50  39  66 S7G20     29.68F
OGALLALA       CLOUDY    42  31  64 NW5       29.69R
$$

NEZ005>010-023>029-035>040-094-170600-
NORTH CENTRAL NEBRASKA

CITY           SKY/WX    TMP DP  RH WIND       PRES   REMARKS
VALENTINE      CLOUDY    50  34  54 SW7       29.61R
AINSWORTH      CLEAR     49  36  61 SW16      29.62F
BROKEN BOW     CLOUDY    48  36  63 S20G30    29.68F
O`NEILL        CLOUDY    48  35  61 S15G21    29.67S
ORD            CLOUDY    46  34  62 SE13      29.70F
THEDFORD       CLOUDY    50  37  59 S16       29.66S
$$

NEZ041-046>049-061>064-073>077-083>087-170600-
SOUTH CENTRAL NEBRASKA

CITY           SKY/WX    TMP DP  RH WIND       PRES   REMARKS
GRAND ISLAND   CLOUDY    44  34  67 S14       29.75F
AURORA         CLOUDY    45  32  61 S13G21    29.77S
HASTINGS       CLOUDY    47  36  65 S14G25    29.76F
HEBRON         PTCLDY    49  37  63 S12G18    29.82F
HOLDREGE       CLOUDY    47  40  74 S17G23    29.72F
KEARNEY        CLOUDY    50  40  68 S21G30    29.73F
$$

NEZ011>018-030>034-042>045-170600-
NORTHEAST NEBRASKA

CITY           SKY/WX    TMP DP  RH WIND       PRES   REMARKS
NORFOLK        CLEAR     43  31  62 S13       29.76S
ALBION         PTCLDY    44  32  63 SE13G18   29.74F
BLAIR          CLOUDY    41  30  64 SE18      29.84F
COLUMBUS       CLOUDY    46  31  55 S18G26    29.78
FREMONT        CLOUDY    42  30  63 SE17      29.83F
TEKAMAH        CLEAR     38  28  67 SE17      29.83F WCI  28
WAYNE          CLOUDY    39  28  63 S20G25    29.76F WCI  30
$$

NEZ050>053-065>068-078-088>093-170600-
SOUTHEAST NEBRASKA

CITY           SKY/WX    TMP DP  RH WIND       PRES   REMARKS
LINCOLN        CLOUDY    44  31  60 S16       29.84F
OMAHA EPPLEY   CLOUDY    41  28  60 SE12      29.89F
BEATRICE       CLOUDY    47  33  58 S14G21    29.85F
FALLS CITY     CLOUDY    43  30  60 SE9       29.92F
NEBRASKA CITY  CLOUDY    44  32  62 S20G26    29.89F
PLATTSMOUTH    CLOUDY    40  31  69 SE14      29.88F WCI  32
$$

NEZ044-045-051>053-067-170600-
OMAHA AREA

CITY           SKY/WX    TMP DP  RH WIND       PRES   REMARKS
OMAHA EPPLEY   CLOUDY    41  28  60 SE12      29.89F
BLAIR          CLOUDY    41  30  64 SE18      29.84F
FREMONT        CLOUDY    42  30  63 SE17      29.83F
MILLARD        CLOUDY    42  31  63 SE12G18   29.87F
OFFUTT AFB     CLOUDY    40  28  63 SE12      29.88F WCI  33
PLATTSMOUTH    CLOUDY    40  31  69 SE14      29.88F WCI  32
WAHOO          FAIR      41  29  64 SE15      29.83F
$$




USA.gov is the U.S. government's official web portal to all federal, state and local government web resources and services.